(content link) weather.gov    
NOAA link
National Weather Service
  NWS link
National Operational Hydrologic
Remote Sensing Center

Back to Snow Analyses Observation Search

South Snowfall Observations
from 2011-02-05 07:00 UTC to 2011-02-06 06:00 UTC

Note: these data are unofficial and provisional.
Latitude and longitude of observations will be included in text files after December 1, 2006.

Text file with Metric unitsText file with English unitsTable with Metric Units

Station IDDate (UTC)Value
(in)
Duration
(hours)
Elevation
(feet)
Station Description
3339H_MADIS2011-02-05 134.00024564ARLINGTON 3.0 NNW, TX
4575O_MADIS2011-02-05 134.00024489WINNSBORO 0.7 SSW, TX
6161A_MADIS2011-02-05 133.00024423NASHVILLE 1.0 NE, AR
2976H_MADIS2011-02-05 132.00024830SANGER 5.4 NW, TX
6679O_MADIS2011-02-05 122.00024600DALLAS 7.2 SW, TX
6901C_MADIS2011-02-05 132.00024817WHITESBORO 2.8 W, TX
9317A_MADIS2011-02-05 132.00024203SHREVEPORT 5.3 SSE, LA
9811C_MADIS2011-02-05 132.00024417BULLARD 3.7 E, TX
1607R_MADIS2011-02-05 131.50024322PLAIN DEALING 3.3 ESE, LA
4284S_MADIS2011-02-05 141.50024630HURST 0.8 W, TX
4278O_MADIS2011-02-05 131.30024374HALLSVILLE 5.4 NNE, TX
9314A_MADIS2011-02-05 141.30024167BOSSIER CITY 6.7 NNW, LA
3054C_MADIS2011-02-05 141.10024518UNIVERSITY PARK 3.1 WNW, TX
6176A_MADIS2011-02-05 141.10024207CAMDEN 1.8 NNW, AR
5971H_MADIS2011-02-05 131.00024200SHREVEPORT 6.4 S, LA
2979H_MADIS2011-02-05 130.80024705SANGER 1.8 WSW, TX
JFRT22011-02-05 151.50048203JEFFERSON,TX
7155C_MADIS2011-02-05 130.60024764BURLESON 1.1 WNW, TX
2985H_MADIS2011-02-05 130.50024568LINCOLN PARK 0.8 ENE, TX
3077H_MADIS2011-02-05 130.50024801VAN ALSTYNE 0.2 E, TX
3286H_MADIS2011-02-05 130.50024906AZLE 4.3 SW, TX
3820O_MADIS2011-02-05 120.50024620BLUE MOUND 2.3 ENE, TX
2969H_MADIS2011-02-05 140.40024732DUNCANVILLE 1.7 NNW, TX
2974H_MADIS2011-02-05 130.30024459MESQUITE 3.3 ESE, TX
3325H_MADIS2011-02-05 130.20024492TYLER 4.1 SSW, TX
3336H_MADIS2011-02-05 140.20024663WATAUGA 2.4 WNW, TX
9670A_MADIS2011-02-05 140.20024486HAZLEHURST 0.8 WSW, MS
1569O_MADIS2011-02-05 140.10024666DENTON 2.8 SSE, TX
5525S_MADIS2011-02-05 130.1002489SWARTZ 2.0 SSW, LA
5527S_MADIS2011-02-05 130.1002485DELTA COMMUNITY COLLEGE, LA
7389S_MADIS2011-02-05 130.10024568LINDALE 0.6 NW, TX
8328O_MADIS2011-02-05 130.10024282RICHLAND 0.3 WSW, MS
9352A_MADIS2011-02-05 160.1002479MONROE 3.2 SSE, LA
9672A_MADIS2011-02-05 120.10024230HATTIESBURG 1.2 WSW, MS
0855O_MADIS2011-02-05 130.00124449JAYESS 5.6 SW, MS
2922H_MADIS2011-02-05 130.00124728PLANO 2.4 N, TX
3239O_MADIS2011-02-05 130.00124479ROCKDALE 0.5 NE, TX
3270H_MADIS2011-02-05 130.00124407KERENS 3.4 NW, TX
3308H_MADIS2011-02-05 130.00124518HENDERSON 6.1 NW, TX
4361S_MADIS2011-02-05 130.00124387FAYETTE 1.9 NNE, AL
4650O_MADIS2011-02-05 140.00124732OVILLA 2.6 S, TX
5492S_MADIS2011-02-05 130.00124197SHREVEPORT 6.2 S, LA
5801S_MADIS2011-02-05 130.00124381VAIDEN 4.8 WNW, MS
5828S_MADIS2011-02-05 130.00124292CLINTON 2.1 SW, MS
6494O_MADIS2011-02-05 140.00124636GRANDVIEW 1.4 SE, TX
7349S_MADIS2011-02-05 130.00124499ROCKDALE 3.6 SSW, TX
7418O_MADIS2011-02-05 150.00124344STARKVILLE 0.8 SW, MS
8156S_MADIS2011-02-05 130.00124217KEITHVILLE 4.2 WNW, LA
8459O_MADIS2011-02-05 130.00124253GRENADA 1.2 S, MS
8462O_MADIS2011-02-05 140.00124318PEARL 3.4 ESE, MS
9663A_MADIS2011-02-05 130.00124338LIBERTY 1.0 WNW, MS
9667A_MADIS2011-02-05 140.00124574ACKERMAN 4.9 W, MS
9711A_MADIS2011-02-05 130.00124351DE KALB 4.3 S, MS
9717A_MADIS2011-02-05 130.00124344MERIDIAN 3.2 NW, MS
9739A_MADIS2011-02-05 130.00124427BRANDON 2.6 NNE, MS
9740A_MADIS2011-02-05 130.00124299FLOWOOD 2.9 NE, MS
9741A_MADIS2011-02-05 130.00124486BRANDON 1.9 NE, MS
9748A_MADIS2011-02-05 130.00124322FLORENCE 0.9 E, MS
0123O_MADIS2011-02-05 120.0002426CAPE CANAVERAL 0.6 ESE, FL
0124O_MADIS2011-02-05 120.0002420CORAL SPRINGS 1.1 NW, FL
0128O_MADIS2011-02-05 130.0002489HIGH POINT 0.2 E, FL
0140O_MADIS2011-02-05 120.00024112ZEPHYRHILLS WEST 2.2 SW, FL
0142O_MADIS2011-02-05 120.0002430PALM HARBOR 3.4 SE, FL
0208O_MADIS2011-02-05 130.00024184GOLIAD 10.1 NE, TX
0209O_MADIS2011-02-05 130.00024623NEW BERLIN 6.7 SE, TX
0211O_MADIS2011-02-05 140.00024240JASPER 6.7 W, TX
0229O_MADIS2011-02-05 130.0002416CORPUS CHRISTI 9.1 NW, TX
0232O_MADIS2011-02-05 130.00024449EMORY 5.6 ENE, TX
0251O_MADIS2011-02-05 100.0002462ST. AUGUSTINE SOUTH 2.1 SSW, FL
0319O_MADIS2011-02-05 120.0002446ORANGE PARK 3.0 WNW, FL
0330O_MADIS2011-02-05 120.0002449ABERDEEN 4.2 NNW, FL
0331O_MADIS2011-02-05 120.0002482LONGWOOD 2.3 WNW, FL
0332O_MADIS2011-02-05 110.0002430EDGEWATER 2.4 N, FL
0395O_MADIS2011-02-05 130.00024410YOAKUM 6.2 WNW, TX
0401O_MADIS2011-02-05 130.000241654LEAKEY 1.5 ENE, TX
0402O_MADIS2011-02-05 130.00024748GEORGETOWN 2.5 NE, TX
0445O_MADIS2011-02-05 130.0002495SUGAR LAND .5 SE, TX
0455S_MADIS2011-02-05 130.000241371BANDERA 3.2 W, TX
0462S_MADIS2011-02-05 130.0002433NASSAU BAY 1.6 NNW, TX
0520O_MADIS2011-02-05 120.0002489LUTZ 2.2 SSE, FL
0633O_MADIS2011-02-05 160.00024748ROUND ROCK 1.8 SW, TX
0686S_MADIS2011-02-05 130.00024673BELL COUNTY, TX
0687S_MADIS2011-02-05 150.000241043HOLLYWOOD PARK 4.2 WNW, TX
0691S_MADIS2011-02-05 140.00024932COMAL COUNTY, TX
0946O_MADIS2011-02-05 120.0002423MANATEE COUNTY, FL
0977O_MADIS2011-02-05 140.000241916WILLOW CITY 4.2 W, TX
1059O_MADIS2011-02-05 130.00024518CEDAR CREEK 4.1 NE, TX
1072O_MADIS2011-02-05 130.00024781AUSTIN 5.6 WSW, TX
1308O_MADIS2011-02-05 130.000241237LLANO 7.9 WNW, TX
1378O_MADIS2011-02-05 130.00024574TEMPLE 4.7 S, TX
1382O_MADIS2011-02-05 230.00024525TEMPLE 8.1 SE, TX
1396S_MADIS2011-02-05 150.00024466COTULLA 1.6 NE, TX
1401O_MADIS2011-02-05 130.00024112VICTORIA 14.0 SW, TX
1402O_MADIS2011-02-05 130.00024102WHARTON 3.1 NE, TX
1495O_MADIS2011-02-05 130.00024541DALE 7.6 N, TX
1526O_MADIS2011-02-05 120.0002456HUDSON 2.5 ENE, FL
1558R_MADIS2011-02-05 130.0002443LEAGUE CITY 0.9 NW, TX
1564O_MADIS2011-02-05 130.00024571ELGIN 0.9 NW, TX
1615O_MADIS2011-02-05 130.00024968AUSTIN 10.7 N, TX
1649O_MADIS2011-02-05 130.0002433GULFPORT 0.9 NNW, FL
1683O_MADIS2011-02-05 130.00024174MOBILE 5.7 WSW, AL
1803R_MADIS2011-02-05 140.00024732AUSTIN 5.9 NE, TX
1826R_MADIS2011-02-05 120.0002439BRADENTON 10.8 SE, FL
1859O_MADIS2011-02-05 120.00024125AVON PARK 2.2 E, FL
1877R_MADIS2011-02-05 130.00024656DEVINE 0.4 S, TX
1904O_MADIS2011-02-05 130.00024932KILLEEN 2.9 SSW, TX
1909O_MADIS2011-02-05 140.000241355STEPHENVILLE 2.6 NNW, TX
1916R_MADIS2011-02-05 120.0002452BREVARD COUNTY, FL
2008R_MADIS2011-02-05 120.0002420CYPRESS LAKE 0.7 S, FL
2009R_MADIS2011-02-05 140.0002469OKEECHOBEE 27.1 NNW, FL
2020R_MADIS2011-02-05 120.0002413GLYNN COUNTY, GA
2049H_MADIS2011-02-05 120.000247HILTON HEAD ISLAND 4.0 N, SC
2071R_MADIS2011-02-05 140.00024984NEW BRAUNFELS 10.4 NW, TX
2072R_MADIS2011-02-05 130.00024971NEW BRAUNFELS 10.0 W, TX
2077R_MADIS2011-02-05 140.000241965OZONA 32.7 SSE, TX
2078R_MADIS2011-02-05 130.0002482INEZ 2.9 W, TX
2147S_MADIS2011-02-05 130.0002449LA BELLE 5.9 ENE, FL
2151S_MADIS2011-02-05 130.0002420DE BARY 2.5 W, FL
2215S_MADIS2011-02-05 150.00024965BURNET COUNTY, TX
2223S_MADIS2011-02-05 130.000241214BRACKETTVILLE 15.1 ESE, TX
2224S_MADIS2011-02-05 130.00024213HALLETTSVILLE 14.8 S, TX
2281O_MADIS2011-02-05 130.000241024SAN MARCOS 9.8 WNW, TX
2544O_MADIS2011-02-05 130.00024564MAYPEARL 0.6 WSW, TX
2545O_MADIS2011-02-05 130.0002423KEMAH 2.2 WSW, TX
2546O_MADIS2011-02-05 130.0002436LEAGUE CITY 0.7 NNE, TX
2552C_MADIS2011-02-05 130.00024889AUSTIN 7.5 N, TX
2571O_MADIS2011-02-05 130.0002416ENGLEWOOD 5.4 ESE, FL
2573O_MADIS2011-02-05 120.0002443DUNEDIN 2.8 ESE, FL
2629O_MADIS2011-02-05 140.000242329OZONA 20.9 SSW, TX
2632O_MADIS2011-02-05 130.00024830DECATUR 4.8 WNW, TX
2661S_MADIS2011-02-05 120.0002485ST. CLOUD 0.7 NNE, FL
2710O_MADIS2011-02-05 140.000242241HARPER 6.5 SW, TX
2713H_MADIS2011-02-05 160.00024335LUFKIN 7.0 W, TX
2724H_MADIS2011-02-05 130.000241693VANDERPOOL 1.4 SE, TX
2727H_MADIS2011-02-05 140.000241266BANDERA 3.9 E, TX
2728H_MADIS2011-02-05 130.000241302PIPE CREEK 1.5 SE, TX
2731S_MADIS2011-02-05 120.0002489RICHMOND 3.4 NE, TX
2732S_MADIS2011-02-05 140.000242037FREDERICKSBURG 12.2 W, TX
2736S_MADIS2011-02-05 130.00024436COTULLA 0.1 NE, TX
2737H_MADIS2011-02-05 130.00024466BASTROP 1.2 N, TX
2743H_MADIS2011-02-05 130.00024420ROSANKY 4.5 N, TX
2754H_MADIS2011-02-05 140.00024246BEEVILLE 0.2 NNE, TX
2759H_MADIS2011-02-05 120.00024850HARKER HEIGHTS 1.7 NW, TX
2763H_MADIS2011-02-05 130.00024771ALAMO HEIGHTS 3.2 NNE, TX
2770H_MADIS2011-02-05 130.000241355SCENIC OAKS 0.8 SW, TX
2771H_MADIS2011-02-05 130.00024915LEON VALLEY 1.6 N, TX
2774H_MADIS2011-02-05 130.00024587CHINA GROVE 4.6 WSW, TX
2775H_MADIS2011-02-05 140.00024889HOLLYWOOD PARK 4.4 E, TX
2793H_MADIS2011-02-05 150.00024650SAN ANTONIO 3.0 S, TX
2798H_MADIS2011-02-05 130.000241312TIMBERWOOD PARK 3.0 SW, TX
2803H_MADIS2011-02-05 120.00024656MARION 6.3 SW, TX
2804H_MADIS2011-02-05 130.00024761TERRELL HILLS 1.0 NE, TX
2805H_MADIS2011-02-05 160.00024919LACKLAND AFB 7.8 WNW, TX
2806H_MADIS2011-02-05 150.00024846LEON VALLEY 2.8 W, TX
2813H_MADIS2011-02-05 130.000241368FAIR OAKS RANCH 0.4 WSW, TX
2818H_MADIS2011-02-05 130.000241263BLANCO 6.8 SSE, TX
2821H_MADIS2011-02-05 140.000241184JOHNSON CITY 2.2 N, TX
2831H_MADIS2011-02-05 130.00024302COLLEGE STATION 2.7 NNW, TX
2843H_MADIS2011-02-05 130.00024282COLLEGE STATION 1.6 E, TX
2858O_MADIS2011-02-05 140.00024161CYPRESS 3.4 E, TX
2872H_MADIS2011-02-05 130.00024794MARBLE FALLS 2.7 SE, TX
2873H_MADIS2011-02-05 140.000241148BUCHANAN DAM 7.4 NNE, TX
2875H_MADIS2011-02-05 140.00024850HIGHLAND HAVEN 1.3 SW, TX
2875O_MADIS2011-02-05 130.0002436CLEWISTON 11.2 WSW, FL
2876H_MADIS2011-02-05 150.000241037BUCHANAN DAM 7.3 N, TX
2887H_MADIS2011-02-05 110.00024509HARWOOD 4.7 NNE, TX
2890H_MADIS2011-02-05 130.000241463CISCO 10.5 NW, TX
2895H_MADIS2011-02-05 130.0002449LOS FRESNOS 0.3 NE, TX
2901H_MADIS2011-02-05 130.0002469HARLINGEN 4.3 WSW, TX
2904H_MADIS2011-02-05 130.0002436RIO HONDO 9.4 NE, TX
2913H_MADIS2011-02-05 130.0002426BAYTOWN 8.0 NE, TX
2937H_MADIS2011-02-05 140.00024827NEW BRAUNFELS 7.0 NNE, TX
2940H_MADIS2011-02-05 130.000241122CANYON LAKE 2.5 W, TX
2950H_MADIS2011-02-05 130.000241175CANYON LAKE 8.1 NW, TX
2958O_MADIS2011-02-05 120.0002426MIAMI 9.5 WSW, FL
2959H_MADIS2011-02-05 130.000242297OZONA 26.8 SW, TX
2964H_MADIS2011-02-05 130.00024545ROWLETT 2.3 NW, TX
2986H_MADIS2011-02-05 120.00024282CUERO 7.3 SSW, TX
2990H_MADIS2011-02-05 130.00024633CARRIZO SPRINGS 0.6 SSW, TX
2992H_MADIS2011-02-05 140.000242356ROCKSPRINGS 5.4 NW, TX
3007H_MADIS2011-02-05 130.000241332STEPHENVILLE 1.2 NW, TX
3010H_MADIS2011-02-05 130.00024394SMITHVILLE 6.6 SE, TX
3013H_MADIS2011-02-05 140.00024420FLATONIA 10.7 NNW, TX
3031H_MADIS2011-02-05 130.00024397LA GRANGE 7.8 NNE, TX
3035H_MADIS2011-02-05 140.0002489RICHMOND 5.6 ESE, TX
3036H_MADIS2011-02-05 130.0002469MISSOURI CITY 4.8 SSE, TX
3037H_MADIS2011-02-05 130.0002495SUGAR LAND 1.0 W, TX
3048O_MADIS2011-02-06 050.0002459MONCKS CORNER 3.0 SW, SC
3051O_MADIS2011-02-05 130.00024679KELLER 4.2 WSW, TX
3068H_MADIS2011-02-05 130.00024256WESER 1.9 NW, TX
3071H_MADIS2011-02-05 130.00024167GOLIAD 6.6 NE, TX
3073H_MADIS2011-02-05 130.00024305GONZALES 3.8 SW, TX
3082H_MADIS2011-02-05 130.00024650MARION 2.2 SSW, TX
3083H_MADIS2011-02-05 140.00024781SCHERTZ 2.2 N, TX
3084H_MADIS2011-02-05 140.00024633NEW BRAUNFELS 2.5 SSE, TX
3087H_MADIS2011-02-05 130.00024561MCQUEENEY 0.5 ENE, TX
3092H_MADIS2011-02-05 130.00024830SCHERTZ 2.0 NNW, TX
3106H_MADIS2011-02-05 130.00024108BUNKER HILL VILLAGE 3.6 NNW, TX
3107H_MADIS2011-02-05 130.00024207TOMBALL 0.6 W, TX
3109H_MADIS2011-02-05 130.0002446FRIENDSWOOD 2.5 NNE, TX
3111H_MADIS2011-02-05 130.0002485KINGWOOD 1.8 E, TX
3120H_MADIS2011-02-05 130.00024210TOMBALL 6.2 W, TX
3124H_MADIS2011-02-05 130.00024341WASKOM 4.4 S, TX
3126H_MADIS2011-02-05 130.000241243DRIPPING SPRINGS 4.3 E, TX
3136H_MADIS2011-02-05 130.00024715KYLE 2.3 NE, TX
3139H_MADIS2011-02-05 130.00024761MANCHACA 2.1 ENE, TX
3147H_MADIS2011-02-05 130.00024121PHARR 5.1 N, TX
3153H_MADIS2011-02-05 130.000241047PERRIN 3.0 ENE, TX
3155H_MADIS2011-02-05 110.000247NEDERLAND 1.9 SE, TX
3160H_MADIS2011-02-05 130.00024364KARNES CITY 12.6 WSW, TX
3167H_MADIS2011-02-05 140.000241325FAIR OAKS RANCH 2.2 NNW, TX
3168H_MADIS2011-02-05 120.000241201KENDALIA 5.4 S, TX
3171H_MADIS2011-02-05 130.000241499COMFORT 11.5 ENE, TX
3181H_MADIS2011-02-05 130.000241519BOERNE 5.2 ENE, TX
3188H_MADIS2011-02-05 130.000241781INGRAM 4.4 NW, TX
3193H_MADIS2011-02-05 140.000241785INGRAM 2.7 W, TX
3194H_MADIS2011-02-05 140.000241742KERRVILLE 2.0 NW, TX
3195H_MADIS2011-02-05 130.000241949INGRAM 10.2 NW, TX
3200H_MADIS2011-02-05 130.000241837INGRAM 5.9 WSW, TX
3203H_MADIS2011-02-05 130.000242008JUNCTION 13.8 SE, TX
3207H_MADIS2011-02-05 140.00024404DILLEY 17.9 ESE, TX
3208O_MADIS2011-02-05 120.0002456KINGSVILLE 3.0 S, TX
3211H_MADIS2011-02-05 130.00024308YOAKUM 6.2 NNE, TX
3214H_MADIS2011-02-05 140.00024387CENTERVILLE 1.9 SSE, TX
3214O_MADIS2011-02-05 140.00024617AUSTIN 4.2 NW, TX
3216O_MADIS2011-02-05 130.00024312WASHINGTON 2.0 WSW, TX
3218O_MADIS2011-02-05 130.00024879BRUSHY CREEK 2.4 SW, TX
3239H_MADIS2011-02-05 140.00024633LORENA 5.5 NW, TX
3241O_MADIS2011-02-05 120.0002495LAKE COUNTY, FL
3242H_MADIS2011-02-05 140.00024361TILDEN 16.0 NNW, TX
3249H_MADIS2011-02-05 130.00024715EAGLE PASS 7.9 SSE, TX
3256H_MADIS2011-02-05 130.000241014HONDO 8.8 E, TX
3258H_MADIS2011-02-05 130.00024843YANCEY 7.3 NW, TX
3259H_MADIS2011-02-05 130.000241047D'HANIS 3.5 WSW, TX
3263H_MADIS2011-02-05 130.000241394MULLIN 3.9 WSW, TX
3267H_MADIS2011-02-05 130.00024312MONTGOMERY 4.0 N, TX
3268H_MADIS2011-02-05 130.00024371WILLIS 1.9 NNE, TX
3272H_MADIS2011-02-05 130.0002443CORPUS CHRISTI 8.0 WNW, TX
3273S_MADIS2011-02-05 130.0002430MIAMI LAKES 0.3 NNW, FL
3278H_MADIS2011-02-05 130.0002413CORPUS CHRISTI 7.3 SSE, TX
3283H_MADIS2011-02-05 120.000241073GRAFORD 8.1 ENE, TX
3289H_MADIS2011-02-05 130.000242854FORT STOCKTON 20.1 ESE, TX
3291H_MADIS2011-02-05 130.000243159FORT STOCKTON 24.7 ESE, TX
3292H_MADIS2011-02-05 150.000242694FORT STOCKTON 11.5 N, TX
3296O_MADIS2011-02-05 140.0002466EDNA 4.6 SSE, TX
3297O_MADIS2011-02-05 130.000241969KERRVILLE 3.9 WSW, TX
3298H_MADIS2011-02-05 130.00024492POINT 3.7 ESE, TX
3298O_MADIS2011-02-05 130.000241161BRACKETTVILLE 1.2 SW, TX
3302H_MADIS2011-02-05 130.000241857CAMP WOOD 7.3 NE, TX
3305H_MADIS2011-02-05 130.0002436AUSTWELL 0.2 ESE, TX
3328S_MADIS2011-02-05 130.000241175JOHNSON CITY 0.7 NNW, TX
3334H_MADIS2011-02-05 130.00024669WATAUGA 2.4 WNW, TX
3345H_MADIS2011-02-05 130.00024686BENBROOK 2.1 N, TX
3349H_MADIS2011-02-05 130.00024650NORTH RICHLAND HILLS 1.9 NE, TX
3355H_MADIS2011-02-05 130.000242520SANDERSON 11.7 ENE, TX
3357H_MADIS2011-02-05 130.000242657IRAAN 20.4 S, TX
3364H_MADIS2011-02-05 140.00024686AUSTIN 2.8 N(ALLANDALE), TX
3368H_MADIS2011-02-05 130.00024778WEST LAKE HILLS 2.4 NNW, TX
3369H_MADIS2011-02-05 140.00024725AUSTIN 1.7 NNW(45TH&LP1), TX
3373H_MADIS2011-02-05 130.00024732AUSTIN 2.9 NE(LAMAR&ARPT), TX
3378H_MADIS2011-02-05 140.00024735LAGO VISTA 3.7 ESE, TX
3381H_MADIS2011-02-05 130.000241086LEANDER 1.9 WSW, TX
3388H_MADIS2011-02-05 130.00024876JOLLYVILLE 2.1 SSW, TX
3389H_MADIS2011-02-05 130.00024748PFLUGERVILLE 1.0 SSW, TX
3399H_MADIS2011-02-05 130.00024768AUSTIN 3.9 NNE, TX
3402H_MADIS2011-02-05 130.00024869WELLS BRANCH 0.5 NNW, TX
3408H_MADIS2011-02-05 140.000241207UVALDE 21.9 NW, TX
3418H_MADIS2011-02-05 130.00024354HUNTSVILLE 11.5 WSW, TX
3419H_MADIS2011-02-05 130.00024259HUNTSVILLE 12.3 NE, TX
3421H_MADIS2011-02-05 140.00024397BURTON 5.3 NNE, TX
3426H_MADIS2011-02-05 130.00024535FREER 29.5 WSW, TX
3428H_MADIS2011-02-05 120.00024495LAREDO 4.3 SSE, TX
3441H_MADIS2011-02-05 130.000241017CEDAR PARK 2.7 SSW, TX
3448H_MADIS2011-02-05 130.00024830GEORGETOWN 5.8 SE, TX
3450H_MADIS2011-02-05 130.00024682HUTTO 0.8 NNE, TX
3453H_MADIS2011-02-05 130.00024574FLORESVILLE 8.1 NNW, TX
3547O_MADIS2011-02-05 140.000241014LAMPASAS 2.7 ENE, TX
3616O_MADIS2011-02-05 120.00024135HAINES CITY 3.3 SSW, FL
3617O_MADIS2011-02-05 120.0002475LADY LAKE 4.3 SSW, FL
3692S_MADIS2011-02-05 130.00024105SPRING VALLEY 2.7 NW, TX
3700S_MADIS2011-02-05 130.00024230CHAPPELL HILL 1.0 NW, TX
3748O_MADIS2011-02-05 130.00024984NEW BRAUNFELS 5.9 NW, TX
3755O_MADIS2011-02-05 140.000241240HORSESHOE BAY 2.7 S, TX
4018O_MADIS2011-02-05 130.000242333ROCKSPRINGS 8.5 WSW, TX
4027O_MADIS2011-02-05 140.0002443CORPUS CHRISTI 4.3 S, TX
4084O_MADIS2011-02-05 140.00024801CLEBURNE 1.5 S, TX
4125C_MADIS2011-02-05 120.0002439VERO BEACH 1.5 WSW, FL
4219O_MADIS2011-02-05 130.000241004BRIDGEPORT 12.0 SW, TX
4281S_MADIS2011-02-05 120.00024171THE WOODLANDS 1.4 ESE, TX
4301O_MADIS2011-02-05 120.00024112CRYSTAL RIVER 4.7 ESE, FL
4329C_MADIS2011-02-05 120.0002449SEBASTIAN 1.7 SSE, FL
4421S_MADIS2011-02-05 140.0002439SARALAND 1.4 E, AL
4427O_MADIS2011-02-05 120.0002446SAVANNAH 3.9 SSW, GA
4431O_MADIS2011-02-05 130.0002426POOLER 0.8 NNE, GA
4445S_MADIS2011-02-05 130.00024377SEALE 1.4 W, AL
4472H_MADIS2011-02-05 130.00024971SHAVANO PARK 3.0 SSW, TX
4475O_MADIS2011-02-05 120.0002466LUTZ 4.2 WNW, FL
4516O_MADIS2011-02-05 120.00024184BARTOW 7.8 SE, FL
4565O_MADIS2011-02-05 140.00024518LOCKHART 5.2 S, TX
4652O_MADIS2011-02-05 130.000242090KNICKERBOCKER 3.2 SW, TX
4653O_MADIS2011-02-05 130.00024784TANGLEWOOD FOREST 0.6 NE, TX
4700O_MADIS2011-02-05 130.00024955BEXAR COUNTY, TX
4702O_MADIS2011-02-05 140.00024656NEW BRAUNFELS 3.1 WSW, TX
4783S_MADIS2011-02-05 120.0002498MICANOPY 8.5 W, FL
4787S_MADIS2011-02-05 120.00024148MACCLENNY 4.9 SSW, FL
4788S_MADIS2011-02-05 120.0002426ROCKLEDGE 1.1 WSW, FL
4790S_MADIS2011-02-05 120.0002443PALM SHORES 2.9 NW, FL
4795S_MADIS2011-02-05 120.0002423MIRAMAR 3.0 WNW, FL
4797O_MADIS2011-02-05 130.000241010SHAVANO PARK 0.6 N, TX
4797S_MADIS2011-02-05 130.0002413LAUDERHILL 2.3 WNW, FL
4798S_MADIS2011-02-05 130.0002430DEERFIELD BEACH 1.7 WSW, FL
4801S_MADIS2011-02-05 130.0002410PUNTA GORDA 1.6 NNW, FL
4804S_MADIS2011-02-05 120.0002416NAPLES 0.7 SSW, FL
4810S_MADIS2011-02-05 120.0002469JACKSONVILLE 10.3 SW, FL
4816S_MADIS2011-02-05 120.0002423JACKSONVILLE 12.0 SSE, FL
4818O_MADIS2011-02-05 130.000241053CANYON LAKE 7.3 WSW, TX
4819O_MADIS2011-02-05 130.00024938NEW BRAUNFELS 5.5 WNW, TX
4821O_MADIS2011-02-05 130.000241024CANYON LAKE 2.8 N, TX
4822O_MADIS2011-02-05 130.00024463WAELDER 3.2 WNW, TX
4827S_MADIS2011-02-05 120.00024171SEBRING 3.1 W, FL
4828C_MADIS2011-02-05 130.00024102MISSION BEND 1.4 N, TX
4828S_MADIS2011-02-05 110.00024102LAKE PLACID 3.9 WNW, FL
4830S_MADIS2011-02-05 120.0002446BRANDON 2.6 SW, FL
4831S_MADIS2011-02-05 120.0002466DEL RIO 1.0 WNW, FL
4834O_MADIS2011-02-05 130.00024778FORT WORTH 5.4 SSW, TX
4834S_MADIS2011-02-05 130.0002416OLDSMAR 2.1 E, FL
4836O_MADIS2011-02-05 130.00024492LAREDO 1.8 N, TX
4840O_MADIS2011-02-05 130.00024541LA VERNIA 4.0 SSE, TX
4841O_MADIS2011-02-05 160.00024594ST. HEDWIG 4.9 S, TX
4842S_MADIS2011-02-05 120.0002479BASSVILLE PARK 1.0 NE, FL
4843S_MADIS2011-02-05 120.00024164CLERMONT 6.9 SSE, FL
4846S_MADIS2011-02-05 120.0002420FORT MYERS 7.4 ESE, FL
4855S_MADIS2011-02-05 120.00024223MICANOPY 3.6 SSW, FL
4856O_MADIS2011-02-05 130.00024617BELTON 1.2 N, TX
4862O_MADIS2011-02-05 120.0002430FORT LAUDERDALE 1.9 SSW, FL
4870S_MADIS2011-02-05 120.00024131OCOEE 0.5 SSW, FL
4872S_MADIS2011-02-05 130.0002436BOYNTON BEACH 1.9 NNW, FL
4876S_MADIS2011-02-05 120.00024102ZEPHYRHILLS 3.9 W, FL
4877H_MADIS2011-02-05 130.00024768BELTON 5.4 NW, TX
4881S_MADIS2011-02-05 130.0002492FROSTPROOF 6.3 ESE, FL
4882S_MADIS2011-02-05 120.00024108SATSUMA 0.2 WSW, FL
4883S_MADIS2011-02-05 120.0002426LAKEWOOD PARK 0.5 SW, FL
4888S_MADIS2011-02-05 130.0002430ENGLEWOOD 2.0 NNW, FL
4892S_MADIS2011-02-05 120.0002479THE VILLAGES 3.5 WSW, FL
4894O_MADIS2011-02-05 130.00024951LEANDER 2.5 ESE, TX
4913S_MADIS2011-02-05 110.00024915NEWNAN 7.5 NE, GA
4971O_MADIS2011-02-05 130.00024571CARRIZO SPRINGS 3.0 NNE, TX
4973O_MADIS2011-02-05 130.0002443WEBSTER 0.4 NW, TX
4978O_MADIS2011-02-05 130.00024443GILMER 6.1 W, TX
5060O_MADIS2011-02-05 120.0002426HOBE SOUND 3.9 NW, FL
5237C_MADIS2011-02-05 130.000241037CASTROVILLE 7.0 NNE, TX
5244C_MADIS2011-02-05 150.00024791GEORGETOWN 1.3 WNW, TX
5489S_MADIS2011-02-05 220.0002423GONZALES 4.0 S, LA
5490S_MADIS2011-02-05 130.0002482BUNKIE 0.3 WSW, LA
5524S_MADIS2011-02-05 140.00024138NATCHITOCHES 0.9 NE, LA
5528S_MADIS2011-02-05 130.0002479MONROE 1.9 NNW, LA
5530C_MADIS2011-02-05 130.00024938HOLLYWOOD PARK 4.7 E, TX
5530S_MADIS2011-02-05 130.0002456NEW ROADS 2.7 ESE, LA
5537H_MADIS2011-02-05 110.00024469WEBBERVILLE 1.8 ESE, TX
5585C_MADIS2011-02-05 130.00024554MARTINDALE 1.7 NNW, TX
5587C_MADIS2011-02-05 130.00024669NEW BRAUNFELS 2.4 SSW, TX
5822S_MADIS2011-02-06 010.0002443BILOXI 4.3 WSW, MS
5853S_MADIS2011-02-06 000.00024318COLUMBUS 5.3 ESE, MS
5866S_MADIS2011-02-05 140.00024433PHILADELPHIA 2.5 N, MS
5920C_MADIS2011-02-05 130.00024853NEW BRAUNFELS 3.1 WNW, TX
5928C_MADIS2011-02-05 140.00024312SHINER 5.1 ESE, TX
5930C_MADIS2011-02-05 130.00024207HALLETTSVILLE 13.4 SE, TX
5956H_MADIS2011-02-05 120.0002439EAST PALATKA 3.5 NNW, FL
5958H_MADIS2011-02-05 110.0002466BUSHNELL 5.0 W, FL
6027C_MADIS2011-02-05 130.000241414BOERNE 2.2 E, TX
6039H_MADIS2011-02-05 120.000241283BLANCO 1.8 ESE, TX
6048H_MADIS2011-02-05 130.000241795ALBANY 7.2 NW, TX
6049H_MADIS2011-02-05 130.000241791ALBANY 11.9 WNW, TX
6050H_MADIS2011-02-05 130.000241785ALBANY 11.4 WNW, TX
6051H_MADIS2011-02-05 130.000241512ALBANY 6.5 N, TX
6052H_MADIS2011-02-05 130.000241716ALBANY 5.9 NW, TX
6053H_MADIS2011-02-05 130.000241286ALBANY 6.8 SE, TX
6054A_MADIS2011-02-05 130.00024328MONTGOMERY 2.2 NE, AL
6193C_MADIS2011-02-05 130.00024840WIMBERLEY 4.4 E, TX
6331C_MADIS2011-02-05 140.00024843WEST LAKE HILLS 5.8 N, TX
6381H_MADIS2011-02-05 120.0002439NORTH PORT 2.6 E, FL
6446H_MADIS2011-02-05 130.00024709TANGLEWOOD FOREST 2.9 E, TX
6452C_MADIS2011-02-05 120.0002452CAMERON COUNTY, TX
6493O_MADIS2011-02-05 130.00024279GOLIAD 11.5 N, TX
6495O_MADIS2011-02-05 150.000241677KERRVILLE 5.1 WNW, TX
6509C_MADIS2011-02-05 130.00024574TAYLOR 0.9 NNW, TX
6583C_MADIS2011-02-05 130.000241053HELOTES 1.0 ENE, TX
6621O_MADIS2011-02-05 140.000242100MERKEL 5.8 SW, TX
6666C_MADIS2011-02-06 010.00024682LACKLAND AFB 3.5 SSE, TX
6757O_MADIS2011-02-05 130.00024433BOWIE COUNTY, TX
6807C_MADIS2011-02-05 130.000241161FAIR OAKS RANCH 12.5 NNE, TX
6812C_MADIS2011-02-05 140.000242297LEAKEY 9.1 WNW, TX
6816C_MADIS2011-02-05 130.00024436BURTON 6.9 SSW, TX
6835C_MADIS2011-02-05 130.000241056CANYON LAKE 8.6 WSW, TX
6847H_MADIS2011-02-05 110.00024472BASTROP 5.7 SW, TX
6906C_MADIS2011-02-05 130.00024719ROUND ROCK 3.6 ENE, TX
6914C_MADIS2011-02-05 140.000241352FAIR OAKS RANCH 2.2 NNW, TX
7010C_MADIS2011-02-05 130.00024525FROST 1.3 WNW, TX
7022O_MADIS2011-02-05 130.00024682NEW BRAUNFELS 2.8 NNE, TX
7023O_MADIS2011-02-05 130.00024853JOLLYVILLE 1.6 SSE, TX
7108S_MADIS2011-02-05 130.0002426ROCKPORT 3.0 NNW, TX
7112S_MADIS2011-02-05 140.00024338CAT SPRING 3.8 N, TX
7119S_MADIS2011-02-05 130.00024187BEEVILLE 6.8 ESE, TX
7122S_MADIS2011-02-05 130.00024515TEMPLE 8.5 SE, TX
7126S_MADIS2011-02-05 130.00024600BELTON 0.4 E, TX
7127S_MADIS2011-02-05 130.00024666BELTON 2.3 NNW, TX
7132S_MADIS2011-02-05 130.00024925HOLLYWOOD PARK 4.3 ENE, TX
7141A_MADIS2011-02-05 110.0002420MELBOURNE BEACH 3.9 SSE, FL
7142A_MADIS2011-02-05 120.0002433MELBOURNE 8.2 NW, FL
7143A_MADIS2011-02-05 120.0002436COCOA 0.6 WSW, FL
7145A_MADIS2011-02-05 130.0002433MICCO 1.3 NW, FL
7149A_MADIS2011-02-05 120.0002410PEMBROKE PINES 1.0 ENE, FL
7152A_MADIS2011-02-05 120.0002430POMPANO BEACH HIGHLANDS 0.7 E,
7152C_MADIS2011-02-05 130.0002439BROWNSVILLE 4.1 E, TX
7153A_MADIS2011-02-05 120.0002423PEMBROKE PINES 2.4 ESE, FL
7158A_MADIS2011-02-05 110.0002410ROTONDA 0.8 WNW, FL
7160A_MADIS2011-02-05 130.0002413PORT CHARLOTTE 6.2 W, FL
7164O_MADIS2011-02-05 120.0002430STUART 3.7 SW, FL
7165A_MADIS2011-02-05 120.0002452HERNANDO 1.6 N, FL
7165O_MADIS2011-02-05 100.0002430NORTH PORT 1.2 NNW, FL
7166S_MADIS2011-02-05 130.00024302COLLEGE STATION 0.9 SE, TX
7170A_MADIS2011-02-05 120.0002426NAPLES 5.7 SE, FL
7171S_MADIS2011-02-05 140.000241227BERTRAM 2.9 N, TX
7172S_MADIS2011-02-05 140.000241155BERTRAM 9.0 NNE, TX
7174A_MADIS2011-02-05 120.0002443COLLIER 14.1 NE, FL
7179S_MADIS2011-02-05 130.0002420SEADRIFT 0.6 E, TX
7181A_MADIS2011-02-05 120.0002423JACKSONVILLE BEACH 3.9 WNW, FL
7188S_MADIS2011-02-05 150.000241919CHILDRESS 0.4 WNW, TX
7199S_MADIS2011-02-05 130.000241007GARDEN RIDGE 1.8 WNW, TX
7201A_MADIS2011-02-05 120.0002479LA BELLE 6.2 NW, FL
7204A_MADIS2011-02-05 110.0002462LA BELLE 4.5 NNW, FL
7210A_MADIS2011-02-05 120.0002456LA BELLE 2.3 WNW, FL
7211A_MADIS2011-02-05 120.00024154BROOKSVILLE 5.5 SE, FL
7212A_MADIS2011-02-05 130.0002498RIDGE MANOR 0.2 E, FL
7213A_MADIS2011-02-05 120.0002482SPRING HILL 3.3 SE, FL
7214A_MADIS2011-02-05 120.0002452WEEKI WACHEE 3.0 N, FL
7216S_MADIS2011-02-05 140.00024489CARROLLTON 1.9 S, TX
7220A_MADIS2011-02-05 120.00024164SEBRING 5.4 WNW, FL
7225S_MADIS2011-02-05 150.000242182ROCKSPRINGS 11.2 NNW, TX
7229A_MADIS2011-02-05 120.0002449SUN CITY CENTER 0.9 W, FL
7234A_MADIS2011-02-05 110.0002482LUTZ 2.0 E, FL
7237A_MADIS2011-02-05 120.0002475UNIVERSITY WEST 2.0 WNW, FL
7237C_MADIS2011-02-05 140.000241867BOERNE 6.0 WSW, TX
7238A_MADIS2011-02-05 120.00024154PLANT CITY 1.9 S, FL
7239S_MADIS2011-02-05 140.00024305LA GRANGE 4.5 SW, TX
7244S_MADIS2011-02-05 130.00024614BIGFOOT 1.4 NE, TX
7245A_MADIS2011-02-05 120.0002456SEBASTIAN 1.1 NE, FL
7246A_MADIS2011-02-05 120.0002430VERO BEACH 2.4 W, FL
7248A_MADIS2011-02-05 140.0002443VERO BEACH 11.4 NW, FL
7248S_MADIS2011-02-05 130.0002439LEAGUE CITY 2.1 NNE, TX
7252S_MADIS2011-02-05 130.000241749FREDERICKSBURG 1.8 NE, TX
7256A_MADIS2011-02-05 130.0002436SEBASTIAN 2.0 SSW, FL
7256S_MADIS2011-02-05 130.000241677FREDERICKSBURG 1.3 SE, TX
7259S_MADIS2011-02-05 130.000241909WILLOW CITY 4.3 W, TX
7260A_MADIS2011-02-05 110.0002452VERO BEACH 3.4 W, FL
7262A_MADIS2011-02-05 120.0002413VERO BEACH 3.5 SSW, FL
7262S_MADIS2011-02-05 140.000241762FREDERICKSBURG 5.5 S, TX
7263A_MADIS2011-02-05 120.0002426VERO BEACH 2.5 S, FL
7263S_MADIS2011-02-05 130.000241759FREDERICKSBURG 9.1 WSW, TX
7265A_MADIS2011-02-05 120.0002446VERO BEACH 6.0 SSE, FL
7268S_MADIS2011-02-05 130.00024640MCQUEENEY 3.4 SW, TX
7270A_MADIS2011-02-05 120.0002492GROVELAND 1.7 E, FL
7279S_MADIS2011-02-05 130.00024686NEW BRAUNFELS 2.8 S, TX
7280A_MADIS2011-02-05 130.0002452NORTH FORT MYERS 3.8 NE, FL
7281O_MADIS2011-02-05 120.00024108LELAND 4.9 ESE, MS
7281S_MADIS2011-02-05 130.00024525SEGUIN 5.0 SSE, TX
7283A_MADIS2011-02-05 120.0002423SAINT JAMES CITY 0.4 SSE, FL
7286S_MADIS2011-02-05 130.0002459HOUSTON 2.8 S, TX
7293S_MADIS2011-02-05 140.000241129DRIPPING SPRINGS 3.3 NE, TX
7300S_MADIS2011-02-05 130.000241362DRIPPING SPRINGS 6.2 WSW, TX
7311S_MADIS2011-02-05 130.00024348GILLETT 1.6 WNW, TX
7313S_MADIS2011-02-05 130.000241253BOERNE 8.8 NE, TX
7315S_MADIS2011-02-05 120.000241220BOERNE 10.5 ENE, TX
7318A_MADIS2011-02-05 120.0002489BELLEVIEW 6.0 SSE, FL
7318S_MADIS2011-02-05 130.000241745KERRVILLE 1.1 SSW, TX
7319C_MADIS2011-02-05 130.000241640LEAKEY 0.8 N, TX
7320S_MADIS2011-02-05 140.000241906KERRVILLE 2.6 SSW, TX
7323S_MADIS2011-02-05 130.0002436KINGSVILLE 8.2 SE, TX
7326A_MADIS2011-02-05 120.0002498SUMMERFIELD 2.8 SW, FL
7330A_MADIS2011-02-05 120.0002452PALM CITY 4.0 SW, FL
7332S_MADIS2011-02-05 130.00024919HORSESHOE BAY 2.7 W, TX
7334A_MADIS2011-02-05 120.0002433STUART 5.0 SE, FL
7341A_MADIS2011-02-05 110.0002416MIAMI LAKES 2.1 N, FL
7342A_MADIS2011-02-05 120.0002436SUNSET 2.4 SW, FL
7355A_MADIS2011-02-05 120.0002416CUDJOE KEY 0.9 SSW, FL
7356A_MADIS2011-02-05 120.000247KEY WEST 1.0 SW, FL
7357A_MADIS2011-02-05 130.0002426ISLAMORADA 7.8 SW, FL
7358S_MADIS2011-02-05 140.0002433CORPUS CHRISTI 6.5 WSW, TX
7363S_MADIS2011-02-05 130.0002433VIDOR 0.9 E, TX
7364S_MADIS2011-02-05 130.0002416ORANGE 2.1 SE, TX
7369O_MADIS2011-02-05 120.0002439SPRING HILL 2.4 NW, FL
7369S_MADIS2011-02-05 130.000242329MCCAMEY 10.5 S, TX
7370S_MADIS2011-02-05 130.000242510IRAAN 8.4 SW, TX
7371A_MADIS2011-02-05 130.00024128WINDERMERE 1.3 NW, FL
7377A_MADIS2011-02-05 120.0002459UNION PARK 3.9 E, FL
7382O_MADIS2011-02-05 120.00024226LAKELAND 7.2 NNW, GA
7386S_MADIS2011-02-05 120.0002443ARANSAS PASS 1.8 W, TX
7387A_MADIS2011-02-05 120.0002416JUPITER 7.9 W, FL
7391A_MADIS2011-02-05 120.0002430ELFERS 4.4 ESE, FL
7394A_MADIS2011-02-05 120.00024148DADE CITY 4.3 N, FL
7402S_MADIS2011-02-05 140.00024774PFLUGERVILLE 2.6 N, TX
7403S_MADIS2011-02-05 130.00024650AUSTIN 1.0 N(45TH&SHCRK), TX
7404S_MADIS2011-02-05 130.00024896JOLLYVILLE 4.8 S, TX
7405S_MADIS2011-02-05 140.00024853LAGO VISTA 1.4 SSW, TX
7406S_MADIS2011-02-05 140.00024525AUSTIN 4.7 E(JORDANPK), TX
7414A_MADIS2011-02-05 120.0002439ST. PETERSBURG 2.3 SSW, FL
7414S_MADIS2011-02-05 120.00024928AUSTIN 10.8 WSW, TX
7416A_MADIS2011-02-05 120.0002466CLEARWATER 2.2 S, FL
7416S_MADIS2011-02-05 130.00024768AUSTIN 7.3 SW, TX
7417S_MADIS2011-02-05 130.00024951AUSTIN 8.2 WSW, TX
7419C_MADIS2011-02-05 130.0002462SAN BENITO 5.0 SSE, TX
7419S_MADIS2011-02-05 130.00024889AUSTIN 13.8 N, TX
7420S_MADIS2011-02-05 140.00024705AUSTIN 5.9 NW, TX
7421C_MADIS2011-02-05 140.000241608BOERNE 4.0 WSW, TX
7422C_MADIS2011-02-05 140.000241004HONDO 8.7 E, TX
7424C_MADIS2011-02-05 140.00024820GEORGETOWN 5.5 NNW, TX
7424S_MADIS2011-02-05 130.00024614AUSTIN 8.9 S, TX
7427A_MADIS2011-02-05 120.00024164POLK CITY 1.1 S, FL
7428A_MADIS2011-02-05 120.00024184LAKELAND 3.8 NW, FL
7431S_MADIS2011-02-05 130.000241371CAMP WOOD 5.02 SSE, TX
7432A_MADIS2011-02-05 120.00024233LAKELAND HIGHLANDS 0.3 SE, FL
7433A_MADIS2011-02-05 130.00024220DUNDEE 0.4 ESE, FL
7433S_MADIS2011-02-05 130.00024912UVALDE 0.1 WSW, TX
7434A_MADIS2011-02-05 140.00024154HAINES CITY 1.0 NW, FL
7434S_MADIS2011-02-05 130.000241132DEL RIO 5.7 NW, TX
7435A_MADIS2011-02-05 110.00024121LAKE WALES 5.8 NNE, FL
7436A_MADIS2011-02-05 130.00024112FROSTPROOF 3.1 ENE, FL
7438A_MADIS2011-02-05 110.00024135LAKELAND 8.7 SW, FL
7438S_MADIS2011-02-05 130.000241627LANGTRY 10.6 W, TX
7439A_MADIS2011-02-05 130.00024157LAKE WALES 4.6 NW, FL
7439S_MADIS2011-02-05 140.000241388COMSTOCK 8.5 WNW (SEMINOLE CANY
7440A_MADIS2011-02-05 130.00024148INTERLACHEN 10.4 NNE, FL
7441S_MADIS2011-02-05 140.000241125DEL RIO 9.3 N, TX
7449S_MADIS2011-02-05 130.00024128VICTORIA 2.1 NNW, TX
7450A_MADIS2011-02-05 120.0002443PORT ST. LUCIE 2.4 SSW, FL
7451S_MADIS2011-02-05 150.0002472VICTORIA 9.7 ESE, TX
7453S_MADIS2011-02-05 130.00024240BRENHAM 8.0 E, TX
7454S_MADIS2011-02-05 130.00024256CHAPPELL HILL 1.8 N, TX
7455S_MADIS2011-02-05 130.00024607LAS TIENDAS RANCH, TX
7456A_MADIS2011-02-05 130.0002436PORT ST. LUCIE 4.0 NE, FL
7470S_MADIS2011-02-05 140.00024968WICHITA FALLS 2.2 S, TX
7471A_MADIS2011-02-05 120.0002436LAKE SARASOTA 4.0 ESE, FL
7474A_MADIS2011-02-05 120.0002449NORTH PORT 4.7 NNE, FL
7475A_MADIS2011-02-05 120.0002420VENICE 0.7 SW, FL
7477S_MADIS2011-02-05 120.00024764ROUND ROCK 1.0 S, TX
7478A_MADIS2011-02-05 120.0002446NORTH PORT 5.6 E, FL
7478S_MADIS2011-02-05 130.00024810GEORGETOWN 1.9 SSW, TX
7481S_MADIS2011-02-05 130.00024899JOLLYVILLE 1.2 WNW, TX
7486A_MADIS2011-02-05 130.0002459THE VILLAGES 3.3 SSE, FL
7490A_MADIS2011-02-05 120.000247EDGEWATER 3.3 SE, FL
7491S_MADIS2011-02-05 130.00024630ELMENDORF 5.6 ENE, TX
7497A_MADIS2011-02-05 120.0002482ORANGE CITY 0.5 SSW, FL
7550O_MADIS2011-02-05 120.0002498DE LAND 5.7 NW, FL
7614H_MADIS2011-02-05 120.0002416PORT CHARLOTTE 3.3 E, FL
7673H_MADIS2011-02-05 140.00024243ETOILE 0.9 SW, TX
7705A_MADIS2011-02-05 130.00024423BUTLER 6.9 S, GA
7709A_MADIS2011-02-05 110.00024253THOMASVILLE 5.1 ESE, GA
7712O_MADIS2011-02-05 130.0002479INEZ 5.3 SSW, TX
7713O_MADIS2011-02-05 150.000241063ANDICE 1.6 SW, TX
7813S_MADIS2011-02-05 140.000242274SONORA 30.3 ENE, TX
7814S_MADIS2011-02-05 140.000242365SONORA 13.4 NE, TX
7815S_MADIS2011-02-05 130.000242379SONORA 13.6 NE, TX
7835S_MADIS2011-02-05 120.0002426VENICE 3.8 SE, FL
7891S_MADIS2011-02-05 130.00024144CLERMONT 3.6 E, FL
7935S_MADIS2011-02-05 130.000241024CEDAR PARK 1.8 NW, TX
7943O_MADIS2011-02-05 110.0002446COCOA 2.6 WNW, FL
7948O_MADIS2011-02-05 120.0002485BELLEVIEW 4.8 E, FL
7952O_MADIS2011-02-05 130.00024141LAKELAND 5.3 WNW, FL
8001S_MADIS2011-02-05 140.00024436MULDOON 4.4 SE, TX
8008S_MADIS2011-02-05 130.00024180VICTORIA 12.1 W, TX
8099O_MADIS2011-02-05 110.00024223BROOKSVILLE 1.2 E, FL
8100O_MADIS2011-02-05 120.00024108LAKE PLACID 2.5 S, FL
8102O_MADIS2011-02-05 130.00024128LAKELAND 6.9 SW, FL
8103O_MADIS2011-02-05 110.00024180FROSTPROOF 4.6 SW, FL
8129S_MADIS2011-02-05 130.0002475REFUGIO 1.0 NNW, TX
8130S_MADIS2011-02-05 130.00024797GEORGETOWN 4.6 NNW, TX
8148S_MADIS2011-02-05 120.0002430PALM BAY 2.6 N, FL
8175C_MADIS2011-02-05 150.00024217HOMER 1.2 N, LA
8183O_MADIS2011-02-05 130.00024689CHAPARROSA RANCH, TX
8184O_MADIS2011-02-05 130.00024735HWY 57 FARM, TX
8185O_MADIS2011-02-05 130.00024712PALOMO LODGE, TX
8186O_MADIS2011-02-05 130.00024656PESCADO, TX
8187O_MADIS2011-02-05 130.00024719SOUTH BIG WILLIAMS, TX
8188O_MADIS2011-02-05 130.00024735VAT, TX
8189O_MADIS2011-02-05 130.00024630YOUNDBLOOD, TX
8190O_MADIS2011-02-05 130.00024679MCNALLY, TX
8191O_MADIS2011-02-05 130.00024705SWITCHES, TX
8192O_MADIS2011-02-05 130.00024666GALAN, TX
8193O_MADIS2011-02-05 130.00024663BEEF HOLLOW FARM, TX
8194O_MADIS2011-02-05 130.00024630SOUTH FLOWING WELLS, TX
8195O_MADIS2011-02-05 130.00024722TRIANGLE, TX
8221O_MADIS2011-02-05 120.0002433PARKLAND 2.1 E, FL
8280O_MADIS2011-02-05 120.0002495THE VILLAGES 2.6 NW, FL
8281O_MADIS2011-02-05 120.00024105THE VILLAGES 2.7 NNW, FL
8285O_MADIS2011-02-05 120.00024115LADY LAKE 5.2 W, FL
8321H_MADIS2011-02-05 140.00024768ATASCOSA 3.7 NW, TX
8324H_MADIS2011-02-05 130.00024610MAXWELL 1.5 NE, TX
8328H_MADIS2011-02-05 150.000241759ABILENE 3.3 SW, TX
8433O_MADIS2011-02-05 120.0002479ST. CLOUD 0.1 WNW, FL
8437O_MADIS2011-02-05 140.0002439SARASOTA 4.9 SE, FL
8493O_MADIS2011-02-05 130.00024272GONZALES 4.5 SSE, TX
8568O_MADIS2011-02-05 120.0002423INDIALANTIC 0.8 N, FL
8765O_MADIS2011-02-05 130.00024807CIBOLO 3.9 N, TX
8768O_MADIS2011-02-05 130.000241572BOERNE 3.4 N, TX
8781C_MADIS2011-02-05 130.0002439LEAGUE CITY 2.4 W, TX
8791O_MADIS2011-02-05 130.000241460BOERNE 3.3 SSE, TX
8793O_MADIS2011-02-05 120.0002433NAPLES PARK 3.7 ENE, FL
8826O_MADIS2011-02-05 130.0002492DUVAL COUNTY, FL
8842C_MADIS2011-02-05 130.00024561LAREDO 23.7 ENE, TX
8847C_MADIS2011-02-05 130.00024833GEORGETOWN 4.5 SSE, TX
8903O_MADIS2011-02-05 140.000241122TIMBERWOOD PARK 3.1 SSE, TX
8909O_MADIS2011-02-05 130.00024558CUMBY 5.6 SSE, TX
8918O_MADIS2011-02-05 130.00024955CEDAR PARK 1.7 S, TX
8919O_MADIS2011-02-05 140.00024535TAYLOR 6.4 E, TX
8957C_MADIS2011-02-05 140.000242034INGRAM 8.5 NW, TX
9108O_MADIS2011-02-05 120.0002410BOKEELIA 5.2 SE, FL
9109O_MADIS2011-02-05 110.0002446ELLENTON 2.2 NE, FL
9110O_MADIS2011-02-05 110.0002436LAKE WORTH 8.9 W, FL
9112O_MADIS2011-02-05 120.0002430VENICE 5.1 SSE, FL
9149C_MADIS2011-02-05 130.00024348LA GRANGE 10.2 NW, TX
9151C_MADIS2011-02-05 120.000241220JACKSBORO 6.2 SW, TX
9178H_MADIS2011-02-05 140.000241329BOERNE 10.2 E, TX
9181O_MADIS2011-02-05 140.000241243LAKEHILLS 1.2 NNE, TX
9182O_MADIS2011-02-05 130.00024719BELTON 3.9 N, TX
9184H_MADIS2011-02-05 140.00024148GEORGE WEST 2.9 E, TX
9196O_MADIS2011-02-05 130.00024758GEORGETOWN 3.0 ESE, TX
9221C_MADIS2011-02-05 140.00024837MARBLE FALLS 0.7 NW, TX
9222C_MADIS2011-02-05 140.00024938SPICEWOOD 4.4 NW, TX
9228C_MADIS2011-02-05 140.00024161GOLIAD 2.4 SE, TX
9238C_MADIS2011-02-05 130.00024121WHARTON 0.3 E, TX
9244C_MADIS2011-02-05 130.000247CORPUS CHRISTI 9.0 SSE, TX
9260C_MADIS2011-02-05 120.0002443HERNANDO COUNTY, FL
9261C_MADIS2011-02-05 120.0002466HERNANDO COUNTY, FL
9262C_MADIS2011-02-05 110.0002439LAKE PLACID 9.4 SE, FL
9267C_MADIS2011-02-05 120.0002495DUNNELLON 10.1 NW, FL
9269C_MADIS2011-02-05 120.000247BIG COPPITT KEY 0.2 NW, FL
9270C_MADIS2011-02-05 130.0002426KEY LARGO 5.3 SW, FL
9274C_MADIS2011-02-05 120.0002423ABERDEEN 3.7 WNW, FL
9279C_MADIS2011-02-05 120.0002469WILDWOOD 6.9 NNE, FL
9325C_MADIS2011-02-05 140.00024761SAN MARCOS 2.9 WNW, TX
9337C_MADIS2011-02-05 130.000241047LIBERTY HILL 0.6 NNW, TX
9344C_MADIS2011-02-05 120.00024105HIGHLANDS COUNTY, FL
9345C_MADIS2011-02-05 120.0002479BRANDON 3.8 E, FL
9351C_MADIS2011-02-05 120.0002430PORT CHARLOTTE 2.9 NE, FL
9353C_MADIS2011-02-05 120.000243PUNTA GORDA 9.6 S, FL
9356A_MADIS2011-02-05 140.00024161MCNARY 0.9 WNW, LA
9357C_MADIS2011-02-05 120.0002495BLOOMINGDALE 3.2 NE, FL
9358C_MADIS2011-02-05 120.0002462TAMPA 10.8 NW, FL
9362C_MADIS2011-02-05 120.0002436TAMPA 5.1 S, FL
9369A_MADIS2011-02-05 130.0002416KAPLAN 1.6 SSE, LA
9369C_MADIS2011-02-05 120.0002426LARGO 2.2 ESE, FL
9370C_MADIS2011-02-05 120.0002446PALM HARBOR 2.2 SSE, FL
9373C_MADIS2011-02-05 120.0002433SARASOTA COUNTY, FL
9375C_MADIS2011-02-05 120.0002426SARASOTA COUNTY, FL
9388C_MADIS2011-02-05 120.0002459BREVARD COUNTY, FL
9401C_MADIS2011-02-05 120.0002436PALM BAY 2.6 SSE, FL
9409C_MADIS2011-02-05 120.00024125INVERNESS 1.6 WSW, FL
9414C_MADIS2011-02-05 130.0002443NORTH NAPLES 4.8 NNE, FL
9501O_MADIS2011-02-05 130.00024200WETUMPKA 5.4 WNW, AL
9538O_MADIS2011-02-05 120.0002413DEERFIELD BEACH 2.5 ESE, FL
9539O_MADIS2011-02-05 120.0002466LAKE PLACID 4.0 NE, FL
9559C_MADIS2011-02-05 130.00024108VICTORIA 1.3 E, TX
9560C_MADIS2011-02-05 140.00024764GEORGETOWN 4.7 NNE, TX
9564C_MADIS2011-02-05 130.0002420MICCO 4.5 NW, FL
9576C_MADIS2011-02-05 120.0002443GIBSONTON 1.5 SE, FL
9579C_MADIS2011-02-05 120.0002416PALMETTO 1.2 W, FL
9582C_MADIS2011-02-05 120.0002475UNION PARK 2.9 SSE, FL
9584C_MADIS2011-02-05 120.00024161ZEPHYRHILLS 2.6 NNW, FL
9597C_MADIS2011-02-05 120.00024187AVON PARK 0.6 NW, FL
9599C_MADIS2011-02-05 120.0002472CARROLLWOOD 1.7 SE, FL
9600C_MADIS2011-02-05 110.0002482LUTZ 2.1 NE, FL
9601C_MADIS2011-02-05 120.0002479LUTZ 1.3 SSE, FL
9603C_MADIS2011-02-05 130.0002479TAMPA 6.5 NNE, FL
9610C_MADIS2011-02-05 120.0002479LUTZ 3.4 NE, FL
9611C_MADIS2011-02-05 130.00024102ZEPHYRHILLS 0.9 ENE, FL
9612C_MADIS2011-02-05 120.0002492ZEPHYRHILLS 3.8 WSW, FL
9613C_MADIS2011-02-05 120.00024151DADE CITY 1.8 WSW, FL
9619C_MADIS2011-02-05 120.00024148AUBURNDALE 1.7 NW, FL
9785O_MADIS2011-02-05 130.000241736INGRAM 2.2 WSW, TX
9787C_MADIS2011-02-05 140.00024886HOLLYWOOD PARK 1.7 ESE, TX
9788C_MADIS2011-02-05 130.00024774SELMA 0.6 WSW, TX
9804C_MADIS2011-02-05 140.000241040HOLLYWOOD PARK 5.2 NE, TX
9809C_MADIS2011-02-05 130.000241040HOLLYWOOD PARK 1.6 N, TX
9812C_MADIS2011-02-05 130.000241093CANYON LAKE 7.4 E, TX
9815C_MADIS2011-02-05 140.00024896CANYON LAKE 7.2 ESE, TX
9825C_MADIS2011-02-05 140.000241936HUNT 5.8 WSW, TX
9836C_MADIS2011-02-05 130.00024866ANDERSON MILL 2.2 S, TX
9840C_MADIS2011-02-05 130.00024689SUNSET VALLEY 0.7 SE, TX
9841C_MADIS2011-02-05 130.00024902UVALDE 0.8 N, TX
9864C_MADIS2011-02-05 120.00024719PFLUGERVILLE 0.6 ENE, TX
9874C_MADIS2011-02-05 120.0002459BRANDON 2.7 N, FL
9875C_MADIS2011-02-05 120.0002449RUSKIN 1.8 ESE, FL
9881C_MADIS2011-02-05 130.00024476MEXIA 9.4 SSE, TX
9889C_MADIS2011-02-05 120.0002439CRYSTAL RIVER 5.3 NNE, FL
9895C_MADIS2011-02-05 120.0002475GREATER NORTHDALE 0.4 ENE, FL
9897C_MADIS2011-02-05 120.0002426ST. JAMES CITY 6.4 NNW, FL
9898H_MADIS2011-02-05 140.00024361HALLETTSVILLE 8.0 N, TX
9899H_MADIS2011-02-05 140.00024279GEORGE WEST 8.0 NE, TX
9901C_MADIS2011-02-05 120.0002423TAMIAMI 1.6 N, FL
9906C_MADIS2011-02-05 120.00024141DADE CITY 4.3 S, FL
9907C_MADIS2011-02-05 130.00024112ZEPHYRHILLS 3.4 NNW, FL
9908C_MADIS2011-02-05 120.00024118PASCO COUNTY, FL
9953C_MADIS2011-02-05 130.000241316PIPE CREEK 3.0 NW, TX
9967C_MADIS2011-02-05 130.0002426FLOUR BLUFF 1.6 SW, TX
9969C_MADIS2011-02-05 130.00024817BRIARCLIFF 1.9 E, TX
9970C_MADIS2011-02-05 130.00024210WOODVILLE 7.2 S, TX
9972C_MADIS2011-02-05 130.00024253HEMPSTEAD 10.0 NNW, TX
9988C_MADIS2011-02-06 010.00024223BEEVILLE 6.0 S, TX
DTNL12011-02-05 130.00048171SHREVEPORT DOWNTOWN
EDET22011-02-05 140.000722057EDEN
NBWT22011-02-05 140.0006640NEW BRAUNFELS WFO
Data last summarized at February 09 2011 01:09:27 UTC.


NOHRSC
Mission Statement  |  Contact


National Weather Service
National Operational Hydrologic Remote Sensing Center
Office of Water Prediction
1735 Lake Drive W.
Chanhassen, MN 55317

NOHRSC homepage
Contact NOHRSC
Glossary
Credits
Information Quality
Page last modified: Jan 28, 2016
About Us
Disclaimer
Privacy Policy
FOIA
Career Opportunities